STARLINK-31332, 59566

Orbit data source: Space-Track

STARLINK-31332, 59566 is a payload satellite owned by SpaceX/Seattle (US) in LEO that was launched on Tue, 23 Apr 2024 UTC via an FALCON 9 launch vehicle from the Air Force Eastern Test Range (AFETR). Payload-class satellites include a variety of spacecraft equipped with specific instruments for various scientific and technological missions. These include communications satellites like Starlink; space stations such as the ISS; scientific satellites like the Hubble; Earth observation satellites from companies like Planet Labs, Umbra, and HawkEye 360; GPS; miniature CubeSats for education and research; and military/defense satellites.

Loading next visibility...
Identifier
59566, 2024-076C
Orbit
LEO
Last TLE update
20 hours ago
Origin
Manufacturer
SpaceX/Seattle
Mission
Operational spacecraft
Bus & Motor
STARLINK V2M, Unknown motor
Mass
730 kg wet, ~700 kg dry
Launch date (UTC)
2024-04-23 (1 year ago)
Launch vehicle
FALCON 9
Launch site
Air Force Eastern Test Range (AFETR)
Object type
Payload
Rocket body
Debris
Shape & HBR
Unknown
Radar Cross Section
Large (>1 m²)

Expand to show TLE details & history

TLE from 20 hours ago
0 STARLINK-31332
1 59566U 24076C   25128.45507263  .00001432  00000-0  61548-4 0  9998
2 59566  43.0025 292.5757 0001409 260.0184 100.0509 15.27573425 59829
Epoch: 2025-05-08T10:55Z
Definitive object data (Epoch: 2025-05-08T10:55:18.275Z)
Latitude
0.00001°
Longitude
-97.77576°
Altitude
483.013 km
Speed
7.626 km/s
True Right ascension
19h 30m 18s
True Declination
0° 00' 00"
Sunlit
Object was in full shadow at TLE epoch
Visualization TLE readout
Latitude
-31.20536°
Longitude
117.79276°
Altitude
490.769 km
Speed
7.62 km/s
Apparent Right ascension
06h 50m 10s
Apparent Declination
-48° 55' 29"
Sunlit
Object is in daylight
Visualization observer readout
Local Sidereal Time
14:53:58
Azimuth
237.328° WSW
Elevation
-47.978°
Doppler factor
1
Orbital elements
Apogee altitude
485.981 km
Perigee altitude
484.047 km
Semi-major axis
6,863.151 km
Eccentricity
0.0001409
Inclination
43.0025°
RAAN
292.5757°
Arg. of periapsis
260.0184°
True anomaly
100.0668°
Mean anomaly
100.0509°
Eccentric anomaly
100.05885°
Mean motion
3.81731 °/min
BSTAR
0.000061548
Orbital period
94.31 mins
Loading maneuver chart data...
Loading SW <> Apogee altitude chart data...
Loading historical data...
Loading historical data...
Loading historical data...
Loading historical data...
Loading historical data...
Loading historical data...
Loading historical data...

STARLINK-31332 Visibility forecast

Observer location: undefined°, undefined°

Span
Click to sort rows by Start time (UTC) header in descending order
Start Az.
Max El. time (UTC)
Max El. Az.
Max El.
End time (UTC)
End Az.
5 mins2025-05-09 13:48:05.127Z206.564° SW2025-05-09 13:51:05.127Z135.846° SSE27.13°2025-05-09 13:53:05.127Z93.71° ESE
6 mins2025-05-09 15:27:05.127Z262.417° W2025-05-09 15:29:05.127Z294.331° NW42.187°2025-05-09 15:33:05.127Z70.742° E
6 mins2025-05-09 17:06:05.127Z290.584° WNW2025-05-09 17:09:05.127Z29.152° NE37.063°2025-05-09 17:12:05.127Z80.034° E
6 mins2025-05-09 18:45:05.127Z285.873° WNW2025-05-09 18:48:05.127Z144.407° SSE43.421°2025-05-09 18:51:05.127Z114.773° SE
|